Regional Weather Roundup
Issued by NWS

Home | Current Version | Previous Version | Graphics & Text | Print | Product List | Glossary On
Versions: 1 2 3 4 5 6 7 8 9 10 11 12 13 14 15 16 17 18 19 20 21 22 23 24 25 26 27 28 29 30 31 32 33 34 35 36 37 38 39 40 41 42 43 44 45 46 47 48
000
ASUS45 KBOU 171307
RWRCO

WEATHER ROUNDUP FOR COLORADO
NATIONAL WEATHER SERVICE DENVER/BOULDER CO
700 AM MDT WED SEP 17 2014

NOTE: "FAIR" INDICATES FEW OR NO CLOUDS BELOW 12000 FEET WITH NO
SIGNIFICANT WEATHER AND/OR OBSTRUCTIONS TO VISIBILITY.

COZ001>005-013-030-031-171400-
...NORTHWEST COLORADO...

CITY           SKY/WX    TMP DP  RH WIND       PRES   REMARKS
CRAIG          CLEAR     40  35  83 SW5       30.20R
HAYDEN         CLEAR     48  34  57 E10       30.21S
MEEKER         CLEAR     45  38  76 NE5       30.21R
MOUNT WERNER   NOT AVBL
STEAMBOAT SPGS CLEAR     39  35  85 CALM      30.24S
WALDEN         CLEAR     41  32  70 S6        30.32R
$$

COZ006>008-011-171400-
...WEST CENTRAL VALLEYS...

CITY           SKY/WX    TMP DP  RH WIND       PRES   REMARKS
GRAND JUNCTION PTCLDY    56  42  59 SE12      30.09R
MONTROSE       MOCLDY    54  42  64 SE7       30.18R
EAGLE          PTCLDY    43  37  81 CALM      30.30S
RIFLE          CLEAR     48  41  76 SE3       30.18R
DELTA          MOCLDY    55  42  62 CALM      30.14S
NUCLA          MOCLDY    55  39  54 CALM      30.21R
$$

COZ017>023-064>068-171400-
...SOUTHWEST COLORADO...

CITY           SKY/WX    TMP DP  RH WIND       PRES   REMARKS
DURANGO        CLOUDY    52  46  80 N5        30.24R
CORTEZ         CLEAR     52  48  86 CALM      30.19R
PAGOSA SPRINGS CLOUDY    48  43  81 CALM      30.30R
TELLURIDE      NOT AVBL
WOLF CREEK PAS CLOUDY    43  36  75 NE15      30.54F
$$

COZ009-010-012-014-032>034-037-058>063-171400-
...CENTRAL COLORADO...

CITY           SKY/WX    TMP DP  RH WIND       PRES   REMARKS
ASPEN          PTCLDY    47  36  65 SW6         N/A
BUENA VISTA    MOCLDY    47  33  57 NW10      30.33S
COPPER MTN     PTCLDY    48  28  46 W3        30.59R
BERTHOUD PASS  FAIR      39  37  93 NW13      30.61S
COTTONWOOD PAS MOCLDY    55  30  38 W6        30.43S
GUNNISON       MOCLDY    39  34  81 CALM      30.36S
KREMMLING      PTCLDY    34  32  93 CALM      30.35R
LEADVILLE      PTCLDY    37  30  75 NE5       30.44R
SALIDA         MOCLDY    52  36  53 CALM      30.38S
SUNLIGHT       CLEAR     54  34  47 NW3       30.51R
WILKERSON PASS NOT AVBL
$$

COZ069>075-171400-
...SAN LUIS VALLEY/SANGRE DE CRISTO MOUNTAINS...

CITY           SKY/WX    TMP DP  RH WIND       PRES   REMARKS
ALAMOSA        CLOUDY    43  38  82 W5        30.28S
LA VETA PASS   NOT AVBL
SAGUACHE       MOCLDY    48  34  57 N10       30.33S
$$

COZ035-036-038>040-171400-
...NORTHERN COLORADO FRONT RANGE...

CITY           SKY/WX    TMP DP  RH WIND       PRES   REMARKS
DENVER INTL AP PTCLDY    56  40  55 SW9       30.09R
DMNS CITY PARK   N/A     58  42  53 S5        30.10S
AURORA         PTCLDY    59  38  46 SW8       30.12R
FRONT RANGE AP PTCLDY    59  39  47 SW8       30.10R
ERIE MUNI ARPT PTCLDY    51  42  72 CALM      30.08R
BOULDER MUN AP PTCLDY    55  41  58 CALM      30.08S
CENTENNIAL     MOCLDY    58  39  49 CALM      30.12S
BROOMFIELD     PTCLDY    61  34  36 CALM      30.11R
FORT COLLINS   PTCLDY    57  43  58 E3        30.08S
LONGMONT       PTCLDY    55  46  71 CALM      30.09R HAZE
$$

COZ041-046-047-076>085-087-088-171400-
...PIKES PEAK/PALMER DIVIDE AND SOUTHERN FOOTHILLS...

CITY           SKY/WX    TMP DP  RH WIND       PRES   REMARKS
COLO. SPRINGS  MOCLDY    58  37  45 N8        30.16S
A. F. ACADEMY  MOCLDY    49  38  64 N8        30.19R
ELLICOTT       NOT AVBL
FALCON         PTCLDY    52  38  58 NW7       30.21S
FORT CARSON    PTCLDY    58  38  47 NW13      30.13S
LIMON          PTCLDY    47  42  83 N7        30.10S
MONUMENT HILL  MOCLDY    52  34  50 S7        30.21R
TRINIDAD       MOCLDY    58  45  62 W14       30.13S
$$

COZ042>045-048>051-090-091-171400-
...NORTHEAST COLORADO...

CITY           SKY/WX    TMP DP  RH WIND       PRES   REMARKS
GREELEY ARPT   PTCLDY    46  37  71 NW5       30.06S
AKRON          CLEAR     57  44  62 SW13      30.03S
BURLINGTON     CLEAR     52  47  83 W5        30.01S
WRAY           CLEAR     52  49  89 SW7       29.98S
STERLING       CLEAR     48  46  93 CALM      29.99S
HOLYOKE        CLEAR     52  46  82 CALM      29.98S
FORT MORGAN    CLEAR     49  42  75 W10       30.04S
$$

COZ086-089-092>099-171400-
...SOUTHEAST COLORADO...

CITY           SKY/WX    TMP DP  RH WIND       PRES   REMARKS
PUEBLO         PTCLDY    53  41  63 CALM      30.06S
LA JUNTA       PTCLDY    56  43  61 SW8       30.03R
LAMAR          PTCLDY    51  48  89 W5        29.99R
SPRINGFIELD      N/A     53  50  89 W5        30.03R
$$



USA.gov is the U.S. government's official web portal to all federal, state and local government web resources and services.